Hourly Data Report for May 05, 2021

WINNIPEG THE FORKS
MANITOBA
Current Station Operator: ECCC - MSC

49°53'18.008" N
97°07'46.007" W
230.00 m
5023262
71579
XWN

Download Data

Hourly Data (May 2021)
Hourly Data Report for May 5, 2021
TIME
LST
Temp Definition
°C
Dew Point Definition
°C
Rel Hum Definition
%
Precip. Amount Definition
mm

Wind Dir Definition
10's deg

Wind Spd Definition
km/h
Visibility Definition
km
Stn Press Definition
kPa
Hmdx Definition


Wind Chill Definition


Weather Definition


00:00 2.4 -6.0 54 0.0   0   99.35     LegendNANA
01:00 1.7 -5.4 59 0.0 0 1   99.35     LegendNANA
02:00 0.1 -5.6 65 0.0 0 1   99.38     LegendNANA
03:00 -0.4 -5.4 69 0.0   0   99.41     LegendNANA
04:00 -0.7 -5.9 68 0.0   0   99.42     LegendNANA
05:00 -1.1 -7.0 64 0.0   0   99.47     LegendNANA
06:00 -0.3 -6.7 62 0.0 36 1   99.53   -1 LegendNANA
07:00 1.1 -6.7 56 0.0   0   99.58     LegendNANA
08:00 3.8 -6.5 47 0.0 35 6   99.59     LegendNANA
09:00 5.8 -5.8 43 0.0 1 4   99.57     LegendNANA
10:00 6.8 -6.9 37 0.0 34 6   99.55     LegendNANA
11:00 8.0 -7.7 32 0.0 1 7   99.55     LegendNANA
12:00 9.2 -7.1 31 0.0 30 3   99.52     LegendNANA
13:00 10.4 -6.3 30 0.0 35 8   99.46     LegendNANA
14:00 11.5 -6.8 27 0.0 35 8   99.42     LegendNANA
15:00 10.8 -6.6 29 0.0 4 5   99.39     LegendNANA
16:00 10.5 -6.6 30 0.0   0   99.40     LegendNANA
17:00 10.2 -5.9 32 0.0 1 2   99.42     LegendNANA
18:00 9.6 -6.5 31 0.0 1 1   99.43     LegendNANA
19:00 9.5 -6.6 32 0.0 3 3   99.44     LegendNANA
20:00 7.9 -6.3 36 0.0   0   99.45     LegendNANA
21:00 6.2 -6.4 40 0.0   0   99.47     LegendNANA
22:00 5.6 -6.5 42 0.0   0   99.48     LegendNANA
23:00 5.0 -5.9 45 0.0   0   99.45     LegendNANA

Notes on Data Quality.

Legend

  • E = Estimated
  • M = Missing
  • NA = Not Available*
  • [empty] = Indicates an unobserved value
Date modified: